Time,TemperatureF,DewpointF,PressureIn,WindDirection,WindDirectionDegrees,WindSpeedMPH,WindSpeedGustMPH,Humidity,HourlyPrecipIn,Conditions,Clouds,dailyrainin,SoftwareType,DateUTC
2013-08-05 00:01:00,59.3,55.1,30.09,North,360,0.0,0.0,86,0.00,,FEW055,0.00,VWS V14.00,2013-08-05 04:01:00,
2013-08-05 00:06:00,59.3,55.1,30.09,North,360,0.0,1.0,86,0.00,,FEW055,0.00,VWS V14.00,2013-08-05 04:06:00,
2013-08-05 00:11:00,59.3,54.8,30.10,North,360,0.0,0.0,85,0.00,,FEW055,0.00,VWS V14.00,2013-08-05 04:11:00,
2013-08-05 00:16:00,59.2,54.7,30.10,North,360,0.0,0.0,85,0.00,,FEW055,0.00,VWS V14.00,2013-08-05 04:16:00,
2013-08-05 00:21:00,59.1,54.9,30.10,North,360,0.0,0.0,86,0.00,,FEW055,0.00,VWS V14.00,2013-08-05 04:21:00,
2013-08-05 00:26:00,59.2,54.7,30.10,North,360,0.0,0.0,85,0.00,,FEW055,0.00,VWS V14.00,2013-08-05 04:26:00,
2013-08-05 00:31:00,59.3,54.8,30.10,North,360,0.0,0.0,85,0.00,,FEW055,0.00,VWS V14.00,2013-08-05 04:31:00,
2013-08-05 00:36:00,59.3,54.8,30.10,North,360,0.0,1.0,85,0.00,,FEW055,0.00,VWS V14.00,2013-08-05 04:36:00,
2013-08-05 00:41:00,59.4,54.9,30.10,North,360,0.0,0.0,85,0.00,,FEW055,0.00,VWS V14.00,2013-08-05 04:41:00,
2013-08-05 00:46:00,59.5,55.0,30.10,North,360,0.0,2.0,85,0.00,,FEW055,0.00,VWS V14.00,2013-08-05 04:46:00,
2013-08-05 00:51:00,59.6,54.8,30.10,North,360,0.0,0.0,84,0.00,,FEW055,0.00,VWS V14.00,2013-08-05 04:51:00,
2013-08-05 00:56:00,59.8,55.0,30.10,ESE,115,1.0,1.0,84,0.00,,FEW055,0.00,VWS V14.00,2013-08-05 04:56:00,
2013-08-05 01:01:00,59.9,55.1,30.10,ESE,115,0.0,1.0,84,0.00,,CLR,0.00,VWS V14.00,2013-08-05 05:01:00,
2013-08-05 01:06:00,60.0,54.8,30.10,ESE,115,0.0,1.0,83,0.00,,CLR,0.00,VWS V14.00,2013-08-05 05:06:00,
2013-08-05 01:11:00,59.9,54.7,30.10,ESE,115,0.0,0.0,83,0.00,,CLR,0.00,VWS V14.00,2013-08-05 05:11:00,
2013-08-05 01:16:00,59.8,54.6,30.10,ESE,115,0.0,0.0,83,0.00,,CLR,0.00,VWS V14.00,2013-08-05 05:16:00,
2013-08-05 01:21:00,59.7,54.5,30.10,ESE,115,0.0,0.0,83,0.00,,CLR,0.00,VWS V14.00,2013-08-05 05:21:00,
2013-08-05 01:26:00,59.4,54.2,30.10,ESE,115,0.0,0.0,83,0.00,,CLR,0.00,VWS V14.00,2013-08-05 05:26:00,
2013-08-05 01:31:00,59.1,54.0,30.10,ESE,115,0.0,0.0,83,0.00,,CLR,0.00,VWS V14.00,2013-08-05 05:31:00,
2013-08-05 01:36:00,59.0,53.8,30.10,ESE,115,0.0,0.0,83,0.00,,CLR,0.00,VWS V14.00,2013-08-05 05:36:00,
2013-08-05 01:41:00,59.0,54.2,30.10,ESE,115,0.0,0.0,84,0.00,,CLR,0.00,VWS V14.00,2013-08-05 05:41:00,
2013-08-05 01:46:00,59.0,54.2,30.10,ESE,115,0.0,0.0,84,0.00,,CLR,0.00,VWS V14.00,2013-08-05 05:46:00,
2013-08-05 01:51:00,58.8,54.0,30.10,ESE,115,0.0,0.0,84,0.00,,CLR,0.00,VWS V14.00,2013-08-05 05:51:00,
2013-08-05 01:56:00,58.6,53.8,30.10,ESE,115,0.0,0.0,84,0.00,,CLR,0.00,VWS V14.00,2013-08-05 05:56:00,
2013-08-05 02:01:00,58.4,53.9,30.10,ESE,115,0.0,0.0,85,0.00,,FEW055,0.00,VWS V14.00,2013-08-05 06:01:00,
2013-08-05 02:06:00,58.1,53.6,30.10,ESE,115,0.0,0.0,85,0.00,,FEW055,0.00,VWS V14.00,2013-08-05 06:06:00,
2013-08-05 02:11:00,58.0,53.5,30.10,ESE,115,0.0,0.0,85,0.00,,FEW055,0.00,VWS V14.00,2013-08-05 06:11:00,
2013-08-05 02:16:00,57.8,53.3,30.10,ESE,115,0.0,0.0,85,0.00,,FEW055,0.00,VWS V14.00,2013-08-05 06:16:00,
2013-08-05 02:21:00,57.7,53.5,30.10,ESE,115,0.0,0.0,86,0.00,,FEW055,0.00,VWS V14.00,2013-08-05 06:21:00,
2013-08-05 02:26:00,57.7,53.5,30.10,ESE,115,0.0,0.0,86,0.00,,FEW055,0.00,VWS V14.00,2013-08-05 06:26:00,
2013-08-05 02:31:00,57.7,53.5,30.09,ESE,115,0.0,0.0,86,0.00,,FEW055,0.00,VWS V14.00,2013-08-05 06:31:00,
2013-08-05 02:36:00,57.7,53.5,30.09,ESE,115,0.0,0.0,86,0.00,,FEW055,0.00,VWS V14.00,2013-08-05 06:36:00,
2013-08-05 02:41:00,57.6,53.5,30.09,ESE,115,0.0,0.0,86,0.00,,FEW055,0.00,VWS V14.00,2013-08-05 06:41:00,
2013-08-05 02:46:00,57.5,53.3,30.09,ESE,115,0.0,0.0,86,0.00,,FEW055,0.00,VWS V14.00,2013-08-05 06:46:00,
2013-08-05 02:51:00,57.3,53.5,30.09,ESE,115,0.0,0.0,87,0.00,,FEW055,0.00,VWS V14.00,2013-08-05 06:51:00,
2013-08-05 02:56:00,57.2,53.4,30.09,ESE,115,0.0,0.0,87,0.00,,FEW055,0.00,VWS V14.00,2013-08-05 06:56:00,
2013-08-05 03:01:00,57.2,53.4,30.09,ESE,115,0.0,0.0,87,0.00,,FEW060,0.00,VWS V14.00,2013-08-05 07:01:00,
2013-08-05 03:05:00,57.0,53.2,30.09,ESE,115,0.0,0.0,87,0.00,,FEW060,0.00,VWS V14.00,2013-08-05 07:05:00,
2013-08-05 03:10:00,56.9,53.4,30.09,ESE,115,0.0,0.0,88,0.00,,FEW060,0.00,VWS V14.00,2013-08-05 07:10:00,
2013-08-05 03:16:00,56.8,53.3,30.09,ESE,115,0.0,0.0,88,0.00,,FEW060,0.00,VWS V14.00,2013-08-05 07:16:00,
2013-08-05 03:21:00,56.7,53.2,30.09,ESE,115,0.0,0.0,88,0.00,,FEW060,0.00,VWS V14.00,2013-08-05 07:21:00,
2013-08-05 03:26:00,56.6,53.1,30.09,ESE,115,0.0,0.0,88,0.00,,FEW060,0.00,VWS V14.00,2013-08-05 07:26:00,
2013-08-05 03:31:00,56.4,52.9,30.10,ESE,115,0.0,0.0,88,0.00,,FEW060,0.00,VWS V14.00,2013-08-05 07:31:00,
2013-08-05 03:36:00,56.3,52.8,30.09,ESE,115,0.0,0.0,88,0.00,,FEW060,0.00,VWS V14.00,2013-08-05 07:36:00,
2013-08-05 03:41:00,56.1,52.6,30.10,ESE,115,0.0,0.0,88,0.00,,FEW060,0.00,VWS V14.00,2013-08-05 07:41:00,
2013-08-05 03:46:00,55.9,52.4,30.10,ESE,115,0.0,0.0,88,0.00,,FEW060,0.00,VWS V14.00,2013-08-05 07:46:00,
2013-08-05 03:51:00,55.7,52.2,30.10,ESE,115,0.0,0.0,88,0.00,,FEW060,0.00,VWS V14.00,2013-08-05 07:51:00,
2013-08-05 03:56:00,55.5,52.0,30.10,ESE,115,0.0,0.0,88,0.00,,FEW060,0.00,VWS V14.00,2013-08-05 07:56:00,
2013-08-05 04:00:00,55.4,51.9,30.10,ESE,115,0.0,0.0,88,0.00,,CLR,0.00,VWS V14.00,2013-08-05 08:00:00,
2013-08-05 04:06:00,55.4,52.2,30.10,ESE,115,0.0,0.0,89,0.00,,CLR,0.00,VWS V14.00,2013-08-05 08:06:00,
2013-08-05 04:11:00,55.6,52.4,30.10,ESE,115,0.0,0.0,89,0.00,,CLR,0.00,VWS V14.00,2013-08-05 08:11:00,
2013-08-05 04:16:00,55.8,52.9,30.09,ESE,115,0.0,0.0,90,0.00,,CLR,0.00,VWS V14.00,2013-08-05 08:16:00,
2013-08-05 04:21:00,55.8,52.9,30.09,ESE,115,0.0,0.0,90,0.00,,CLR,0.00,VWS V14.00,2013-08-05 08:21:00,
2013-08-05 04:26:00,55.7,52.5,30.09,ESE,115,0.0,0.0,89,0.00,,CLR,0.00,VWS V14.00,2013-08-05 08:26:00,
2013-08-05 04:31:00,55.5,52.6,30.09,ESE,115,0.0,0.0,90,0.00,,CLR,0.00,VWS V14.00,2013-08-05 08:31:00,
2013-08-05 04:36:00,55.4,52.5,30.09,ESE,115,0.0,0.0,90,0.00,,CLR,0.00,VWS V14.00,2013-08-05 08:36:00,
2013-08-05 04:41:00,55.3,52.4,30.09,ESE,115,0.0,0.0,90,0.00,,CLR,0.00,VWS V14.00,2013-08-05 08:41:00,
2013-08-05 04:46:00,55.2,52.3,30.09,ESE,115,0.0,0.0,90,0.00,,CLR,0.00,VWS V14.00,2013-08-05 08:46:00,
2013-08-05 04:51:00,55.1,52.2,30.09,ESE,115,0.0,0.0,90,0.00,,CLR,0.00,VWS V14.00,2013-08-05 08:51:00,
2013-08-05 04:56:00,55.0,52.1,30.09,ESE,115,0.0,0.0,90,0.00,,CLR,0.00,VWS V14.00,2013-08-05 08:56:00,
2013-08-05 05:01:00,55.0,52.1,30.09,ESE,115,0.0,0.0,90,0.00,,FEW070,0.00,VWS V14.00,2013-08-05 09:01:00,
2013-08-05 05:06:00,54.9,52.0,30.09,ESE,115,0.0,0.0,90,0.00,,FEW070,0.00,VWS V14.00,2013-08-05 09:06:00,
2013-08-05 05:11:00,54.9,52.0,30.09,ESE,115,0.0,0.0,90,0.00,,FEW070,0.00,VWS V14.00,2013-08-05 09:11:00,
2013-08-05 05:16:00,54.9,52.0,30.09,ESE,115,0.0,0.0,90,0.00,,FEW070,0.00,VWS V14.00,2013-08-05 09:16:00,
2013-08-05 05:21:00,54.8,51.9,30.08,ESE,115,0.0,0.0,90,0.00,,FEW070,0.00,VWS V14.00,2013-08-05 09:21:00,
2013-08-05 05:26:00,54.7,51.8,30.08,ESE,115,0.0,0.0,90,0.00,,FEW070,0.00,VWS V14.00,2013-08-05 09:26:00,
2013-08-05 05:31:00,54.6,51.7,30.09,ESE,115,0.0,0.0,90,0.00,,FEW070,0.00,VWS V14.00,2013-08-05 09:31:00,
2013-08-05 05:36:00,54.6,52.0,30.09,ESE,115,0.0,0.0,91,0.00,,FEW070,0.00,VWS V14.00,2013-08-05 09:36:00,
2013-08-05 05:41:00,54.4,51.8,30.09,ESE,115,0.0,0.0,91,0.00,,FEW070,0.00,VWS V14.00,2013-08-05 09:41:00,
2013-08-05 05:46:00,54.4,51.8,30.09,ESE,115,0.0,0.0,91,0.00,,FEW070,0.00,VWS V14.00,2013-08-05 09:46:00,
2013-08-05 05:52:00,54.3,51.7,30.09,ESE,115,0.0,0.0,91,0.00,,FEW070,0.00,VWS V14.00,2013-08-05 09:52:00,
2013-08-05 05:57:00,54.4,51.8,30.09,ESE,115,0.0,0.0,91,0.00,,FEW070,0.00,VWS V14.00,2013-08-05 09:57:00,
2013-08-05 06:02:00,54.6,52.0,30.10,ESE,115,0.0,0.0,91,0.00,,SCT070,0.00,VWS V14.00,2013-08-05 10:02:00,
2013-08-05 06:07:00,54.6,52.0,30.10,ESE,115,0.0,0.0,91,0.00,,SCT070,0.00,VWS V14.00,2013-08-05 10:07:00,
2013-08-05 06:12:00,54.6,52.0,30.10,ESE,115,0.0,0.0,91,0.00,,SCT070,0.00,VWS V14.00,2013-08-05 10:12:00,
2013-08-05 06:17:00,54.7,52.1,30.10,ESE,115,0.0,0.0,91,0.00,,SCT070,0.00,VWS V14.00,2013-08-05 10:17:00,
2013-08-05 06:22:00,54.7,52.4,30.10,ESE,115,0.0,0.0,92,0.00,,SCT070,0.00,VWS V14.00,2013-08-05 10:22:00,
2013-08-05 06:27:00,54.9,52.6,30.09,ESE,115,0.0,0.0,92,0.00,,SCT070,0.00,VWS V14.00,2013-08-05 10:27:00,
2013-08-05 06:32:00,54.9,52.6,30.10,ESE,115,0.0,0.0,92,0.00,,SCT070,0.00,VWS V14.00,2013-08-05 10:32:00,
2013-08-05 06:37:00,54.9,52.3,30.10,ESE,115,0.0,0.0,91,0.00,,SCT070,0.00,VWS V14.00,2013-08-05 10:37:00,
2013-08-05 06:43:00,54.9,52.6,30.10,ESE,115,0.0,0.0,92,0.00,,SCT070,0.00,VWS V14.00,2013-08-05 10:43:00,
2013-08-05 06:47:00,54.9,52.6,30.09,ESE,115,0.0,0.0,92,0.00,,SCT070,0.00,VWS V14.00,2013-08-05 10:47:00,
2013-08-05 06:53:00,54.9,52.6,30.09,ESE,115,0.0,0.0,92,0.00,,SCT070,0.00,VWS V14.00,2013-08-05 10:53:00,
2013-08-05 06:57:00,55.1,52.8,30.10,ESE,115,0.0,0.0,92,0.00,,SCT070,0.00,VWS V14.00,2013-08-05 10:57:00,
2013-08-05 07:03:00,55.4,53.1,30.10,ESE,115,0.0,0.0,92,0.00,,BKN070,0.00,VWS V14.00,2013-08-05 11:03:00,
2013-08-05 07:08:00,55.7,53.4,30.09,ESE,115,0.0,0.0,92,0.00,,BKN070,0.00,VWS V14.00,2013-08-05 11:08:00,
2013-08-05 07:13:00,56.0,53.7,30.09,ESE,115,0.0,0.0,92,0.00,,BKN070,0.00,VWS V14.00,2013-08-05 11:13:00,
2013-08-05 07:18:00,56.1,53.8,30.09,ESE,115,0.0,0.0,92,0.00,,BKN070,0.00,VWS V14.00,2013-08-05 11:18:00,
2013-08-05 07:22:00,56.2,53.9,30.09,ESE,115,0.0,0.0,92,0.00,,BKN070,0.00,VWS V14.00,2013-08-05 11:22:00,
2013-08-05 07:28:00,56.2,53.6,30.09,ESE,115,0.0,0.0,91,0.00,,BKN070,0.00,VWS V14.00,2013-08-05 11:28:00,
2013-08-05 07:33:00,56.3,53.7,30.09,ESE,115,0.0,0.0,91,0.00,,BKN070,0.00,VWS V14.00,2013-08-05 11:33:00,
2013-08-05 07:38:00,56.4,53.8,30.09,ESE,115,0.0,0.0,91,0.00,,BKN070,0.00,VWS V14.00,2013-08-05 11:38:00,
2013-08-05 07:42:00,56.4,53.8,30.09,ESE,115,0.0,0.0,91,0.00,,BKN070,0.00,VWS V14.00,2013-08-05 11:42:00,
2013-08-05 07:48:00,56.4,53.8,30.10,ESE,115,0.0,0.0,91,0.00,,BKN070,0.00,VWS V14.00,2013-08-05 11:48:00,
2013-08-05 07:53:00,56.4,53.5,30.10,ESE,115,0.0,0.0,90,0.00,,BKN070,0.00,VWS V14.00,2013-08-05 11:53:00,
2013-08-05 07:58:00,56.4,53.5,30.10,ESE,115,0.0,0.0,90,0.00,,BKN070,0.00,VWS V14.00,2013-08-05 11:58:00,
2013-08-05 08:03:00,56.6,53.7,30.10,ESE,115,0.0,0.0,90,0.00,,CLR,0.00,VWS V14.00,2013-08-05 12:03:00,
2013-08-05 08:08:00,57.1,54.5,30.10,ESE,115,0.0,0.0,91,0.00,,CLR,0.00,VWS V14.00,2013-08-05 12:08:00,
2013-08-05 08:13:00,57.9,55.3,30.10,ESE,115,0.0,0.0,91,0.00,,CLR,0.00,VWS V14.00,2013-08-05 12:13:00,
2013-08-05 08:18:00,58.7,55.8,30.10,ESE,115,0.0,0.0,90,0.00,,CLR,0.00,VWS V14.00,2013-08-05 12:18:00,
2013-08-05 08:23:00,59.2,56.0,30.09,ESE,115,0.0,0.0,89,0.00,,CLR,0.00,VWS V14.00,2013-08-05 12:23:00,
2013-08-05 08:28:00,60.1,56.5,30.09,ESE,115,0.0,0.0,88,0.00,,CLR,0.00,VWS V14.00,2013-08-05 12:28:00,
2013-08-05 08:33:00,60.8,56.6,30.09,ESE,115,0.0,0.0,86,0.00,,CLR,0.00,VWS V14.00,2013-08-05 12:33:00,
2013-08-05 08:38:00,61.5,56.6,30.09,ESE,115,0.0,0.0,84,0.00,,CLR,0.00,VWS V14.00,2013-08-05 12:38:00,
2013-08-05 08:43:00,62.1,56.9,30.09,ESE,115,0.0,0.0,83,0.00,,CLR,0.00,VWS V14.00,2013-08-05 12:43:00,
2013-08-05 08:48:00,62.7,57.1,30.09,ESE,115,0.0,0.0,82,0.00,,CLR,0.00,VWS V14.00,2013-08-05 12:48:00,
2013-08-05 08:53:00,63.2,57.3,30.09,SSE,148,0.0,3.0,81,0.00,,CLR,0.00,VWS V14.00,2013-08-05 12:53:00,
2013-08-05 08:59:00,63.5,56.9,30.09,SSW,194,0.0,3.0,79,0.00,,CLR,0.00,VWS V14.00,2013-08-05 12:59:00,
2013-08-05 09:04:00,63.8,57.2,30.09,South,191,0.0,4.0,79,0.00,,CLR,0.00,VWS V14.00,2013-08-05 13:04:00,
2013-08-05 09:08:00,64.0,57.4,30.09,SSW,207,0.0,1.0,79,0.00,,CLR,0.00,VWS V14.00,2013-08-05 13:08:00,
2013-08-05 09:14:00,64.5,57.8,30.09,SSW,209,0.0,5.0,79,0.00,,CLR,0.00,VWS V14.00,2013-08-05 13:14:00,
2013-08-05 09:18:00,64.9,57.9,30.09,SSW,205,0.0,0.0,78,0.00,,CLR,0.00,VWS V14.00,2013-08-05 13:18:00,
2013-08-05 09:24:00,65.5,58.5,30.09,SSW,209,0.0,5.0,78,0.00,,CLR,0.00,VWS V14.00,2013-08-05 13:24:00,
2013-08-05 09:29:00,65.7,58.3,30.09,SSW,209,0.0,0.0,77,0.00,,CLR,0.00,VWS V14.00,2013-08-05 13:29:00,
2013-08-05 09:34:00,66.0,58.2,30.09,SSW,203,0.0,4.0,76,0.00,,CLR,0.00,VWS V14.00,2013-08-05 13:34:00,
2013-08-05 09:39:00,66.3,58.5,30.09,SSW,196,0.0,0.0,76,0.00,,CLR,0.00,VWS V14.00,2013-08-05 13:39:00,
2013-08-05 09:44:00,66.7,58.9,30.09,SSW,196,0.0,1.0,76,0.00,,CLR,0.00,VWS V14.00,2013-08-05 13:44:00,
2013-08-05 09:49:00,67.0,58.8,30.09,SSW,195,0.0,4.0,75,0.00,,CLR,0.00,VWS V14.00,2013-08-05 13:49:00,
2013-08-05 09:54:00,67.3,59.1,30.09,SSW,200,0.0,4.0,75,0.00,,CLR,0.00,VWS V14.00,2013-08-05 13:54:00,
2013-08-05 09:59:00,67.5,58.9,30.09,SSW,202,1.0,4.0,74,0.00,,CLR,0.00,VWS V14.00,2013-08-05 13:59:00,
2013-08-05 10:04:00,67.7,59.5,30.09,SSW,202,0.0,4.0,75,0.00,,CLR,0.00,VWS V14.00,2013-08-05 14:04:00,
2013-08-05 10:09:00,68.1,59.5,30.09,SSW,200,1.0,3.0,74,0.00,,CLR,0.00,VWS V14.00,2013-08-05 14:09:00,
2013-08-05 10:14:00,68.5,59.9,30.09,SSW,200,0.0,3.0,74,0.00,,CLR,0.00,VWS V14.00,2013-08-05 14:14:00,
2013-08-05 10:19:00,69.0,60.0,30.09,SSW,200,0.0,0.0,73,0.00,,CLR,0.00,VWS V14.00,2013-08-05 14:19:00,
2013-08-05 10:24:00,69.1,60.1,30.09,SSW,200,0.0,4.0,73,0.00,,CLR,0.00,VWS V14.00,2013-08-05 14:24:00,
2013-08-05 10:29:00,69.2,60.2,30.09,SSW,200,0.0,0.0,73,0.00,,CLR,0.00,VWS V14.00,2013-08-05 14:29:00,
2013-08-05 10:34:00,69.2,59.8,30.08,SSW,199,0.0,3.0,72,0.00,,CLR,0.00,VWS V14.00,2013-08-05 14:34:00,
2013-08-05 10:39:00,69.0,58.4,30.08,SSW,200,0.0,0.0,69,0.00,,CLR,0.00,VWS V14.00,2013-08-05 14:39:00,
2013-08-05 10:44:00,69.1,59.3,30.08,SSW,199,0.0,2.0,71,0.00,,CLR,0.00,VWS V14.00,2013-08-05 14:44:00,
2013-08-05 10:49:00,69.3,59.5,30.08,SW,217,0.0,0.0,71,0.00,,CLR,0.00,VWS V14.00,2013-08-05 14:49:00,
2013-08-05 10:55:00,69.5,58.9,30.08,SW,217,0.0,3.0,69,0.00,,CLR,0.00,VWS V14.00,2013-08-05 14:55:00,
2013-08-05 11:00:00,69.7,59.5,30.08,SW,218,0.0,1.0,70,0.00,,CLR,0.00,VWS V14.00,2013-08-05 15:00:00,
2013-08-05 11:05:00,70.2,59.2,30.08,SW,218,0.0,1.0,68,0.00,,CLR,0.00,VWS V14.00,2013-08-05 15:05:00,
2013-08-05 11:10:00,70.6,60.3,30.08,WSW,242,2.0,4.0,70,0.00,,CLR,0.00,VWS V14.00,2013-08-05 15:10:00,
2013-08-05 11:15:00,70.9,59.8,30.08,West,273,0.0,5.0,68,0.00,,CLR,0.00,VWS V14.00,2013-08-05 15:15:00,
2013-08-05 11:20:00,71.0,59.5,30.08,West,271,0.0,4.0,67,0.00,,CLR,0.00,VWS V14.00,2013-08-05 15:20:00,
2013-08-05 11:25:00,71.0,58.7,30.08,NNW,338,5.0,5.0,65,0.00,,CLR,0.00,VWS V14.00,2013-08-05 15:25:00,
2013-08-05 11:30:00,70.8,58.5,30.07,NNW,329,0.0,0.0,65,0.00,,CLR,0.00,VWS V14.00,2013-08-05 15:30:00,
2013-08-05 11:35:00,71.3,59.4,30.07,SSW,195,0.0,5.0,66,0.00,,CLR,0.00,VWS V14.00,2013-08-05 15:35:00,
2013-08-05 11:40:00,71.7,59.8,30.07,SSW,194,0.0,0.0,66,0.00,,CLR,0.00,VWS V14.00,2013-08-05 15:40:00,
2013-08-05 11:45:00,72.2,58.5,30.07,West,281,1.0,5.0,62,0.00,,CLR,0.00,VWS V14.00,2013-08-05 15:45:00,
2013-08-05 11:50:00,72.2,58.5,30.07,WNW,284,3.0,4.0,62,0.00,,CLR,0.00,VWS V14.00,2013-08-05 15:50:00,
2013-08-05 11:55:00,72.3,58.1,30.07,West,281,0.0,4.0,61,0.00,,CLR,0.00,VWS V14.00,2013-08-05 15:55:00,
2013-08-05 12:00:00,72.6,57.9,30.07,SW,232,0.0,5.0,60,0.00,,CLR,0.00,VWS V14.00,2013-08-05 16:00:00,
2013-08-05 12:05:00,72.5,56.9,30.07,SW,232,0.0,5.0,58,0.00,,CLR,0.00,VWS V14.00,2013-08-05 16:05:00,
2013-08-05 12:10:00,73.0,59.2,30.06,SW,231,0.0,1.0,62,0.00,,CLR,0.00,VWS V14.00,2013-08-05 16:10:00,
2013-08-05 12:15:00,73.4,58.7,30.05,SW,224,3.0,3.0,60,0.00,,CLR,0.00,VWS V14.00,2013-08-05 16:15:00,
2013-08-05 12:20:00,73.5,53.7,30.05,West,274,0.0,2.0,50,0.00,,CLR,0.00,VWS V14.00,2013-08-05 16:20:00,
2013-08-05 12:26:00,73.7,56.0,30.05,WNW,286,2.0,3.0,54,0.00,,CLR,0.00,VWS V14.00,2013-08-05 16:26:00,
2013-08-05 12:31:00,73.7,56.0,30.05,WNW,286,0.0,1.0,54,0.00,,CLR,0.00,VWS V14.00,2013-08-05 16:31:00,
2013-08-05 12:36:00,73.7,55.5,30.05,WNW,286,0.0,1.0,53,0.00,,CLR,0.00,VWS V14.00,2013-08-05 16:36:00,
2013-08-05 12:40:00,73.7,55.5,30.05,WNW,283,0.0,1.0,53,0.00,,CLR,0.00,VWS V14.00,2013-08-05 16:40:00,
2013-08-05 12:46:00,73.7,55.5,30.05,WNW,283,0.0,3.0,53,0.00,,CLR,0.00,VWS V14.00,2013-08-05 16:46:00,
2013-08-05 12:51:00,73.3,53.6,30.05,WNW,284,0.0,1.0,50,0.00,,CLR,0.00,VWS V14.00,2013-08-05 16:51:00,
2013-08-05 12:56:00,73.0,54.4,30.05,WNW,283,0.0,5.0,52,0.00,,CLR,0.00,VWS V14.00,2013-08-05 16:56:00,
2013-08-05 13:01:00,73.0,54.4,30.04,West,281,2.0,4.0,52,0.00,,CLR,0.00,VWS V14.00,2013-08-05 17:01:00,
2013-08-05 13:06:00,73.1,53.9,30.04,West,281,0.0,4.0,51,0.00,,CLR,0.00,VWS V14.00,2013-08-05 17:06:00,
2013-08-05 13:11:00,73.2,56.6,30.03,WNW,282,0.0,0.0,56,0.00,,CLR,0.00,VWS V14.00,2013-08-05 17:11:00,
2013-08-05 13:16:00,73.1,55.0,30.04,WNW,282,0.0,0.0,53,0.00,,CLR,0.00,VWS V14.00,2013-08-05 17:16:00,
2013-08-05 13:21:00,73.1,53.9,30.03,WNW,283,0.0,4.0,51,0.00,,CLR,0.00,VWS V14.00,2013-08-05 17:21:00,
2013-08-05 13:26:00,73.0,56.9,30.03,WNW,283,0.0,4.0,57,0.00,,CLR,0.00,VWS V14.00,2013-08-05 17:26:00,
2013-08-05 13:31:00,73.0,55.9,30.03,WNW,283,0.0,0.0,55,0.00,,CLR,0.00,VWS V14.00,2013-08-05 17:31:00,
2013-08-05 13:36:00,72.9,55.8,30.03,WNW,283,0.0,0.0,55,0.00,,CLR,0.00,VWS V14.00,2013-08-05 17:36:00,
2013-08-05 13:42:00,72.9,55.8,30.03,WNW,282,0.0,3.0,55,0.00,,CLR,0.00,VWS V14.00,2013-08-05 17:42:00,
2013-08-05 13:46:00,72.6,55.0,30.03,WNW,282,0.0,3.0,54,0.00,,CLR,0.00,VWS V14.00,2013-08-05 17:46:00,
2013-08-05 13:52:00,72.7,56.1,30.02,WNW,282,0.0,0.0,56,0.00,,CLR,0.00,VWS V14.00,2013-08-05 17:52:00,
2013-08-05 13:57:00,72.6,56.5,30.02,WNW,282,0.0,0.0,57,0.00,,CLR,0.00,VWS V14.00,2013-08-05 17:57:00,
2013-08-05 14:02:00,72.7,56.6,30.02,WNW,282,0.0,2.0,57,0.00,,CLR,0.00,VWS V14.00,2013-08-05 18:02:00,
2013-08-05 14:07:00,72.8,55.7,30.01,West,281,0.0,2.0,55,0.00,,CLR,0.00,VWS V14.00,2013-08-05 18:07:00,
2013-08-05 14:12:00,72.8,55.7,30.01,West,276,0.0,3.0,55,0.00,,CLR,0.00,VWS V14.00,2013-08-05 18:12:00,
2013-08-05 14:17:00,72.8,55.2,30.01,SSW,202,0.0,5.0,54,0.00,,CLR,0.00,VWS V14.00,2013-08-05 18:17:00,
2013-08-05 14:22:00,72.7,55.6,30.01,SSW,202,0.0,0.0,55,0.00,,CLR,0.00,VWS V14.00,2013-08-05 18:22:00,
2013-08-05 14:27:00,72.5,57.8,30.02,SSW,202,0.0,1.0,60,0.00,,CLR,0.00,VWS V14.00,2013-08-05 18:27:00,
2013-08-05 14:32:00,72.1,56.5,30.02,SSW,200,0.0,4.0,58,0.00,,CLR,0.00,VWS V14.00,2013-08-05 18:32:00,
2013-08-05 14:37:00,71.4,56.3,30.01,SSW,202,0.0,4.0,59,0.00,,CLR,0.00,VWS V14.00,2013-08-05 18:37:00,
2013-08-05 14:42:00,71.0,56.9,30.02,SSW,202,0.0,4.0,61,0.00,,CLR,0.00,VWS V14.00,2013-08-05 18:42:00,
2013-08-05 14:47:00,70.6,57.0,30.02,SSW,202,0.0,4.0,62,0.00,,CLR,0.00,VWS V14.00,2013-08-05 18:47:00,
2013-08-05 14:52:00,70.3,57.6,30.03,SSW,202,0.0,1.0,64,0.00,,CLR,0.00,VWS V14.00,2013-08-05 18:52:00,
2013-08-05 14:57:00,70.3,58.0,30.03,SSW,202,0.0,1.0,65,0.00,,CLR,0.00,VWS V14.00,2013-08-05 18:57:00,
2013-08-05 15:02:00,70.2,57.5,30.03,SSW,202,0.0,0.0,64,0.00,,CLR,0.00,VWS V14.00,2013-08-05 19:02:00,
2013-08-05 15:07:00,70.1,57.4,30.03,SSW,202,0.0,0.0,64,0.00,,CLR,0.00,VWS V14.00,2013-08-05 19:07:00,
2013-08-05 15:12:00,70.2,57.5,30.03,SSW,202,0.0,0.0,64,0.00,,CLR,0.00,VWS V14.00,2013-08-05 19:12:00,
2013-08-05 15:17:00,70.1,56.5,30.02,SSW,202,0.0,0.0,62,0.00,,CLR,0.00,VWS V14.00,2013-08-05 19:17:00,
2013-08-05 15:22:00,70.2,57.5,30.03,SSW,202,0.0,0.0,64,0.00,,CLR,0.00,VWS V14.00,2013-08-05 19:22:00,
2013-08-05 15:27:00,70.2,57.5,30.02,SSW,202,0.0,0.0,64,0.00,,CLR,0.00,VWS V14.00,2013-08-05 19:27:00,
2013-08-05 15:33:00,70.3,58.8,30.02,SSW,202,0.0,0.0,67,0.00,,CLR,0.00,VWS V14.00,2013-08-05 19:33:00,
2013-08-05 15:38:00,70.4,58.5,30.02,SSW,202,0.0,0.0,66,0.00,,CLR,0.00,VWS V14.00,2013-08-05 19:38:00,
2013-08-05 15:43:00,70.4,57.7,30.02,SSW,202,0.0,0.0,64,0.00,,CLR,0.00,VWS V14.00,2013-08-05 19:43:00,
2013-08-05 15:48:00,70.6,58.3,30.02,SSW,202,0.0,0.0,65,0.00,,CLR,0.00,VWS V14.00,2013-08-05 19:48:00,
2013-08-05 15:53:00,70.8,58.5,30.02,SSW,202,0.0,0.0,65,0.00,,CLR,0.00,VWS V14.00,2013-08-05 19:53:00,
2013-08-05 15:58:00,71.1,57.9,30.03,SSW,202,0.0,1.0,63,0.00,,CLR,0.00,VWS V14.00,2013-08-05 19:58:00,
2013-08-05 16:03:00,71.3,57.6,30.03,SSW,202,0.0,2.0,62,0.00,,CLR,0.00,VWS V14.00,2013-08-05 20:03:00,
2013-08-05 16:08:00,71.5,57.4,30.03,SSW,202,0.0,2.0,61,0.00,,CLR,0.00,VWS V14.00,2013-08-05 20:08:00,
2013-08-05 16:13:00,71.5,57.8,30.02,SSW,202,0.0,0.0,62,0.00,,CLR,0.00,VWS V14.00,2013-08-05 20:13:00,
2013-08-05 16:18:00,71.4,58.2,30.02,SSW,202,0.0,0.0,63,0.00,,CLR,0.00,VWS V14.00,2013-08-05 20:18:00,
2013-08-05 16:23:00,71.3,58.5,30.02,SSW,202,0.0,0.0,64,0.00,,CLR,0.00,VWS V14.00,2013-08-05 20:23:00,
2013-08-05 16:28:00,71.3,58.9,30.01,SSW,202,0.0,2.0,65,0.00,,CLR,0.00,VWS V14.00,2013-08-05 20:28:00,
2013-08-05 16:33:00,71.0,58.7,30.00,SSW,202,0.0,5.0,65,0.00,,CLR,0.00,VWS V14.00,2013-08-05 20:33:00,
2013-08-05 16:38:00,71.0,58.7,30.01,SSW,202,0.0,0.0,65,0.00,,CLR,0.00,VWS V14.00,2013-08-05 20:38:00,
2013-08-05 16:43:00,71.0,57.8,30.01,SSW,202,0.0,0.0,63,0.00,,CLR,0.00,VWS V14.00,2013-08-05 20:43:00,
2013-08-05 16:48:00,71.2,58.4,30.01,SSW,202,0.0,0.0,64,0.00,,CLR,0.00,VWS V14.00,2013-08-05 20:48:00,
2013-08-05 16:53:00,71.5,59.1,30.01,SSW,202,0.0,0.0,65,0.00,,CLR,0.00,VWS V14.00,2013-08-05 20:53:00,
2013-08-05 16:59:00,71.6,58.8,30.01,SSW,202,0.0,0.0,64,0.00,,CLR,0.00,VWS V14.00,2013-08-05 20:59:00,
2013-08-05 17:04:00,71.8,58.5,30.00,SSW,202,0.0,0.0,63,0.00,,CLR,0.00,VWS V14.00,2013-08-05 21:04:00,
2013-08-05 17:09:00,71.8,58.5,30.00,SSW,202,0.0,0.0,63,0.00,,CLR,0.00,VWS V14.00,2013-08-05 21:09:00,
2013-08-05 17:14:00,72.0,59.2,30.00,SSW,192,0.0,3.0,64,0.00,,CLR,0.00,VWS V14.00,2013-08-05 21:14:00,
2013-08-05 17:19:00,72.1,58.8,29.99,SSW,192,0.0,0.0,63,0.00,,CLR,0.00,VWS V14.00,2013-08-05 21:19:00,
2013-08-05 17:24:00,72.1,58.8,30.00,SSW,192,0.0,2.0,63,0.00,,CLR,0.00,VWS V14.00,2013-08-05 21:24:00,
2013-08-05 17:29:00,72.1,59.7,30.00,South,191,0.0,1.0,65,0.00,,CLR,0.00,VWS V14.00,2013-08-05 21:29:00,
2013-08-05 17:34:00,72.2,59.4,30.00,South,191,0.0,1.0,64,0.00,,CLR,0.00,VWS V14.00,2013-08-05 21:34:00,
2013-08-05 17:39:00,72.2,59.8,29.99,SSW,192,0.0,0.0,65,0.00,,CLR,0.00,VWS V14.00,2013-08-05 21:39:00,
2013-08-05 17:44:00,72.1,58.8,30.00,South,191,0.0,1.0,63,0.00,,CLR,0.00,VWS V14.00,2013-08-05 21:44:00,
2013-08-05 17:49:00,71.9,59.1,30.00,South,191,0.0,0.0,64,0.00,,CLR,0.00,VWS V14.00,2013-08-05 21:49:00,
2013-08-05 17:54:00,71.6,58.8,30.00,SSW,192,0.0,1.0,64,0.00,,CLR,0.00,VWS V14.00,2013-08-05 21:54:00,
2013-08-05 18:00:00,71.3,59.4,29.99,SSW,192,0.0,0.0,66,0.00,,BKN110,0.00,VWS V14.00,2013-08-05 22:00:00,
2013-08-05 18:05:00,70.9,58.6,29.99,South,191,0.0,2.0,65,0.00,,BKN110,0.00,VWS V14.00,2013-08-05 22:05:00,
2013-08-05 18:10:00,70.6,59.1,29.99,SSW,192,0.0,0.0,67,0.00,,BKN110,0.00,VWS V14.00,2013-08-05 22:10:00,
2013-08-05 18:15:00,70.4,58.9,29.99,South,191,0.0,0.0,67,0.00,,BKN110,0.00,VWS V14.00,2013-08-05 22:15:00,
2013-08-05 18:20:00,70.3,59.2,29.99,SSW,192,0.0,0.0,68,0.00,,BKN110,0.00,VWS V14.00,2013-08-05 22:20:00,
2013-08-05 18:25:00,70.2,59.6,29.99,South,191,0.0,0.0,69,0.00,,BKN110,0.00,VWS V14.00,2013-08-05 22:25:00,
2013-08-05 18:30:00,70.2,59.2,29.99,SSW,192,0.0,0.0,68,0.00,,BKN110,0.00,VWS V14.00,2013-08-05 22:30:00,
2013-08-05 18:35:00,70.1,59.1,29.99,SSW,192,0.0,0.0,68,0.00,,BKN110,0.00,VWS V14.00,2013-08-05 22:35:00,
2013-08-05 18:40:00,69.9,59.7,29.99,South,191,0.0,0.0,70,0.00,,BKN110,0.00,VWS V14.00,2013-08-05 22:40:00,
2013-08-05 18:45:00,69.7,59.9,29.98,SSW,192,0.0,0.0,71,0.00,,BKN110,0.00,VWS V14.00,2013-08-05 22:45:00,
2013-08-05 18:50:00,69.6,59.4,29.99,SSW,192,0.0,0.0,70,0.00,,BKN110,0.00,VWS V14.00,2013-08-05 22:50:00,
2013-08-05 18:55:00,69.5,59.3,29.99,South,191,0.0,0.0,70,0.00,,BKN110,0.00,VWS V14.00,2013-08-05 22:55:00,
2013-08-05 19:00:00,69.4,59.2,29.98,SSW,192,0.0,0.0,70,0.00,,OVC100,0.00,VWS V14.00,2013-08-05 23:00:00,
2013-08-05 19:05:00,69.3,59.9,29.98,South,191,0.0,0.0,72,0.00,,OVC100,0.00,VWS V14.00,2013-08-05 23:05:00,
2013-08-05 19:10:00,69.2,59.4,29.98,SSW,192,0.0,0.0,71,0.00,,OVC100,0.00,VWS V14.00,2013-08-05 23:10:00,
2013-08-05 19:15:00,69.0,60.0,29.98,SSW,192,0.0,0.0,73,0.00,,OVC100,0.00,VWS V14.00,2013-08-05 23:15:00,
2013-08-05 19:20:00,68.9,59.9,29.98,South,191,0.0,0.0,73,0.00,,OVC100,0.00,VWS V14.00,2013-08-05 23:20:00,
2013-08-05 19:25:00,68.8,59.4,29.98,South,191,0.0,0.0,72,0.00,,OVC100,0.00,VWS V14.00,2013-08-05 23:25:00,
2013-08-05 19:30:00,68.7,59.7,29.98,South,191,0.0,0.0,73,0.00,,OVC100,0.00,VWS V14.00,2013-08-05 23:30:00,
2013-08-05 19:35:00,68.7,59.7,29.98,SSW,192,0.0,0.0,73,0.00,,OVC100,0.00,VWS V14.00,2013-08-05 23:35:00,
2013-08-05 19:40:00,68.6,60.0,29.98,South,191,0.0,0.0,74,0.00,,OVC100,0.00,VWS V14.00,2013-08-05 23:40:00,
2013-08-05 19:45:00,68.5,59.9,29.98,SSW,192,0.0,0.0,74,0.00,,OVC100,0.00,VWS V14.00,2013-08-05 23:45:00,
2013-08-05 19:51:00,68.4,59.8,29.98,SSW,192,0.0,0.0,74,0.00,,OVC100,0.00,VWS V14.00,2013-08-05 23:51:00,
2013-08-05 19:56:00,68.4,59.8,29.97,SSW,192,0.0,0.0,74,0.00,,OVC100,0.00,VWS V14.00,2013-08-05 23:56:00,
2013-08-05 20:01:00,68.3,59.7,29.97,SSW,192,0.0,0.0,74,0.00,,OVC100,0.00,VWS V14.00,2013-08-06 00:01:00,
2013-08-05 20:06:00,68.2,59.6,29.97,South,191,0.0,0.0,74,0.00,,OVC100,0.00,VWS V14.00,2013-08-06 00:06:00,
2013-08-05 20:11:00,68.1,59.5,29.97,South,191,0.0,0.0,74,0.00,,OVC100,0.00,VWS V14.00,2013-08-06 00:11:00,
2013-08-05 20:16:00,68.1,59.9,29.97,SSW,192,0.0,0.0,75,0.00,,OVC100,0.00,VWS V14.00,2013-08-06 00:16:00,
2013-08-05 20:21:00,68.0,59.8,29.97,South,191,0.0,0.0,75,0.00,,OVC100,0.00,VWS V14.00,2013-08-06 00:21:00,
2013-08-05 20:26:00,67.9,59.7,29.97,SSW,192,0.0,0.0,75,0.00,,OVC100,0.00,VWS V14.00,2013-08-06 00:26:00,
2013-08-05 20:31:00,67.7,59.5,29.96,SSW,192,0.0,0.0,75,0.00,,OVC100,0.00,VWS V14.00,2013-08-06 00:31:00,
2013-08-05 20:36:00,67.6,59.4,29.97,South,191,0.0,0.0,75,0.00,,OVC100,0.00,VWS V14.00,2013-08-06 00:36:00,
2013-08-05 20:42:00,67.5,59.7,29.97,South,191,0.0,0.0,76,0.00,,OVC100,0.00,VWS V14.00,2013-08-06 00:42:00,
2013-08-05 20:47:00,67.4,59.2,29.97,South,191,0.0,0.0,75,0.00,,OVC100,0.00,VWS V14.00,2013-08-06 00:47:00,
2013-08-05 20:52:00,67.3,59.5,29.97,SSW,192,0.0,0.0,76,0.00,,OVC100,0.00,VWS V14.00,2013-08-06 00:52:00,
2013-08-05 20:57:00,67.1,59.3,29.97,SSW,192,0.0,0.0,76,0.00,,OVC100,0.00,VWS V14.00,2013-08-06 00:57:00,
2013-08-05 21:02:00,67.0,59.2,29.96,SSW,192,0.0,0.0,76,0.00,,OVC090,0.00,VWS V14.00,2013-08-06 01:02:00,
2013-08-05 21:07:00,66.9,59.5,29.96,South,191,0.0,0.0,77,0.00,,OVC090,0.00,VWS V14.00,2013-08-06 01:07:00,
2013-08-05 21:12:00,66.8,59.4,29.97,SSW,192,0.0,0.0,77,0.00,,OVC090,0.00,VWS V14.00,2013-08-06 01:12:00,
2013-08-05 21:17:00,66.7,59.3,29.95,SSW,192,0.0,0.0,77,0.00,,OVC090,0.00,VWS V14.00,2013-08-06 01:17:00,
2013-08-05 21:22:00,66.7,59.3,29.95,South,191,0.0,0.0,77,0.00,,OVC090,0.00,VWS V14.00,2013-08-06 01:22:00,
2013-08-05 21:27:00,66.7,59.3,29.95,SSW,192,0.0,0.0,77,0.00,,OVC090,0.00,VWS V14.00,2013-08-06 01:27:00,
2013-08-05 21:32:00,66.7,59.3,29.95,SSW,192,0.0,0.0,77,0.00,,OVC090,0.00,VWS V14.00,2013-08-06 01:32:00,
2013-08-05 21:37:00,66.7,59.3,29.96,SSW,192,0.0,0.0,77,0.00,,OVC090,0.00,VWS V14.00,2013-08-06 01:37:00,
2013-08-05 21:42:00,66.7,58.9,29.95,South,191,0.0,0.0,76,0.00,,OVC090,0.00,VWS V14.00,2013-08-06 01:42:00,
2013-08-05 21:48:00,66.7,59.3,29.96,South,191,0.0,0.0,77,0.00,,OVC090,0.00,VWS V14.00,2013-08-06 01:48:00,
2013-08-05 21:53:00,66.7,59.3,29.95,SSW,192,0.0,0.0,77,0.00,,OVC090,0.00,VWS V14.00,2013-08-06 01:53:00,
2013-08-05 21:58:00,66.7,59.3,29.95,South,191,0.0,0.0,77,0.00,,OVC090,0.00,VWS V14.00,2013-08-06 01:58:00,
2013-08-05 22:03:00,66.7,59.3,29.95,South,191,0.0,0.0,77,0.00,,BKN100,0.00,VWS V14.00,2013-08-06 02:03:00,
2013-08-05 22:08:00,66.6,59.2,29.95,South,191,0.0,0.0,77,0.00,,BKN100,0.00,VWS V14.00,2013-08-06 02:08:00,
2013-08-05 22:13:00,66.6,59.2,29.96,South,191,0.0,0.0,77,0.00,,BKN100,0.00,VWS V14.00,2013-08-06 02:13:00,
2013-08-05 22:18:00,66.6,59.2,29.95,SSW,192,0.0,0.0,77,0.00,,BKN100,0.00,VWS V14.00,2013-08-06 02:18:00,
2013-08-05 22:23:00,66.6,58.8,29.95,South,191,0.0,0.0,76,0.00,,BKN100,0.00,VWS V14.00,2013-08-06 02:23:00,
2013-08-05 22:28:00,66.6,59.2,29.95,SSW,192,0.0,0.0,77,0.00,,BKN100,0.00,VWS V14.00,2013-08-06 02:28:00,
2013-08-05 22:33:00,66.5,59.1,29.95,South,191,0.0,0.0,77,0.00,,BKN100,0.00,VWS V14.00,2013-08-06 02:33:00,
2013-08-05 22:39:00,66.5,59.1,29.95,SSW,192,0.0,0.0,77,0.00,,BKN100,0.00,VWS V14.00,2013-08-06 02:39:00,
2013-08-05 22:44:00,66.5,59.1,29.95,SSW,192,0.0,0.0,77,0.00,,BKN100,0.00,VWS V14.00,2013-08-06 02:44:00,
2013-08-05 22:49:00,66.4,59.0,29.95,SSW,192,0.0,0.0,77,0.00,,BKN100,0.00,VWS V14.00,2013-08-06 02:49:00,
2013-08-05 22:54:00,66.3,58.9,29.95,South,191,0.0,0.0,77,0.00,,BKN100,0.00,VWS V14.00,2013-08-06 02:54:00,
2013-08-05 22:59:00,66.1,58.7,29.95,South,191,0.0,0.0,77,0.00,,OVC085,0.00,VWS V14.00,2013-08-06 02:59:00,
2013-08-05 23:04:00,66.1,58.7,29.95,SSW,192,0.0,0.0,77,0.00,,OVC085,0.00,VWS V14.00,2013-08-06 03:04:00,
2013-08-05 23:09:00,66.0,58.6,29.95,South,191,0.0,0.0,77,0.00,,OVC085,0.00,VWS V14.00,2013-08-06 03:09:00,
2013-08-05 23:14:00,65.9,58.9,29.95,SSW,192,0.0,0.0,78,0.00,,OVC085,0.00,VWS V14.00,2013-08-06 03:14:00,
2013-08-05 23:19:00,65.8,58.8,29.95,SSW,192,0.0,0.0,78,0.00,,OVC085,0.00,VWS V14.00,2013-08-06 03:19:00,
2013-08-05 23:24:00,65.6,58.6,29.95,SSW,192,0.0,0.0,78,0.00,,OVC085,0.00,VWS V14.00,2013-08-06 03:24:00,
2013-08-05 23:29:00,65.4,58.7,29.95,SSW,192,0.0,0.0,79,0.00,,OVC085,0.00,VWS V14.00,2013-08-06 03:29:00,
2013-08-05 23:34:00,65.1,58.4,29.95,SSW,192,0.0,0.0,79,0.00,,OVC085,0.00,VWS V14.00,2013-08-06 03:34:00,
2013-08-05 23:39:00,64.9,58.2,29.94,SSW,192,0.0,0.0,79,0.00,,OVC085,0.00,VWS V14.00,2013-08-06 03:39:00,
2013-08-05 23:44:00,64.8,58.1,29.95,South,191,0.0,0.0,79,0.00,,OVC085,0.00,VWS V14.00,2013-08-06 03:44:00,
2013-08-05 23:49:00,64.7,58.0,29.94,South,191,0.0,0.0,79,0.00,,OVC085,0.00,VWS V14.00,2013-08-06 03:49:00,
2013-08-05 23:54:00,64.6,58.3,29.94,South,191,0.0,0.0,80,0.00,,OVC085,0.00,VWS V14.00,2013-08-06 03:54:00,
2013-08-05 23:59:00,64.5,58.2,29.95,South,191,0.0,0.0,80,0.00,,OVC070,0.00,VWS V14.00,2013-08-06 03:59:00,